TimeEDT,TemperatureF,Dew PointF,Humidity,Sea Level PressureIn,VisibilityMPH,Wind Direction,Wind SpeedMPH,Gust SpeedMPH,PrecipitationIn,Events,Conditions,WindDirDegrees,DateUTC
12:53 AM,57.9,43.0,58,29.64,10.0,South,10.4,-,N/A,,Clear,180,2012-10-17 04:53:00
1:53 AM,57.9,45.0,62,29.62,10.0,South,11.5,-,N/A,,Partly Cloudy,170,2012-10-17 05:53:00
2:53 AM,60.1,46.0,60,29.63,10.0,South,13.8,-,N/A,,Mostly Cloudy,180,2012-10-17 06:53:00
3:53 AM,59.0,46.9,64,29.61,10.0,South,13.8,-,N/A,,Scattered Clouds,180,2012-10-17 07:53:00
4:53 AM,59.0,48.0,67,29.60,10.0,South,12.7,-,N/A,,Partly Cloudy,190,2012-10-17 08:53:00
5:53 AM,57.9,48.0,70,29.60,10.0,South,15.0,-,N/A,,Scattered Clouds,180,2012-10-17 09:53:00
6:53 AM,57.9,48.0,70,29.60,10.0,South,15.0,-,N/A,,Partly Cloudy,180,2012-10-17 10:53:00
7:53 AM,57.9,48.9,72,29.59,10.0,South,13.8,21.9,N/A,,Partly Cloudy,180,2012-10-17 11:53:00
8:53 AM,57.9,48.9,72,29.60,10.0,South,17.3,-,N/A,,Scattered Clouds,180,2012-10-17 12:53:00
9:53 AM,61.0,48.9,64,29.61,10.0,South,18.4,24.2,N/A,,Scattered Clouds,180,2012-10-17 13:53:00
10:53 AM,64.0,48.9,58,29.60,10.0,South,16.1,-,N/A,,Partly Cloudy,180,2012-10-17 14:53:00
11:53 AM,66.9,50.0,54,29.58,10.0,South,12.7,21.9,N/A,,Scattered Clouds,180,2012-10-17 15:53:00
12:53 PM,70.0,48.9,47,29.57,10.0,South,13.8,23.0,N/A,,Mostly Cloudy,180,2012-10-17 16:53:00
1:53 PM,71.1,48.9,45,29.55,10.0,South,12.7,21.9,N/A,,Mostly Cloudy,190,2012-10-17 17:53:00
2:53 PM,72.0,50.0,46,29.52,10.0,South,17.3,23.0,N/A,,Mostly Cloudy,180,2012-10-17 18:53:00
3:53 PM,72.0,48.0,43,29.51,10.0,South,17.3,25.3,N/A,,Mostly Cloudy,170,2012-10-17 19:53:00
4:53 PM,66.0,54.0,65,29.49,10.0,South,10.4,-,0.02,,Overcast,170,2012-10-17 20:53:00
5:53 PM,68.0,51.1,55,29.49,10.0,South,15.0,-,N/A,,Overcast,190,2012-10-17 21:53:00
6:53 PM,64.9,52.0,63,29.51,5.0,SSW,18.4,29.9,0.01,Rain,Light Rain,210,2012-10-17 22:53:00
7:53 PM,61.0,53.1,75,29.52,10.0,South,13.8,-,0.01,Rain,Light Rain,170,2012-10-17 23:53:00
8:53 PM,57.9,55.0,90,29.51,10.0,SSE,16.1,-,0.04,Rain,Light Rain,160,2012-10-18 00:53:00
9:21 PM,57.2,55.4,94,29.51,10.0,SSE,15.0,24.2,0.00,,Overcast,160,2012-10-18 01:21:00
9:47 PM,57.2,55.4,94,29.49,10.0,SSE,15.0,-,0.00,,Overcast,150,2012-10-18 01:47:00
9:53 PM,57.9,55.0,90,29.49,10.0,SSE,17.3,-,0.00,Rain,Light Rain,150,2012-10-18 01:53:00
10:53 PM,59.0,55.0,87,29.46,10.0,SE,18.4,27.6,0.01,,Overcast,140,2012-10-18 02:53:00
11:53 PM,59.0,54.0,83,29.44,10.0,SE,25.3,35.7,0.00,,Overcast,140,2012-10-18 03:53:00